Airfield :
LOGIN :

Register | Disclaimer

   EN    FR    IT 

 










Legend :    VFR   Marginal VFR   IFR   Intensive IFR   Very Intensive IFR
Visi :
Ceiling :
>= 8 km
>= 3000ft
5 to 8 km
1000 to 3000 ft
1500m to 5 km
500 to 1000 ft
800 to 1500m
200 to 500 ft
< 800m
< 200 ft
Symbols :   Thunderstorms  Fog  Heavy snow  Heavy precipitations  Wind > 20 kt
SIGMETs :     Misc.  Thunderstorms  Icing  Turbulence  Mountain Waves  Volcanic Ashes







- Airport Elevation : 124 ft
- IATA code : NHT
- Download approach charts


EGWU - RAF Northolt

CURRENT METAR :
  • 210350Z AUTO 29003KT 8000 // OVC080/// 17/15 Q1013

EXPIRED METARs :
  • 210250Z AUTO 30002KT 8000 // BKN090/// BKN110/// 17/15 Q1012
  • 210150Z AUTO 34002KT 9999 // OVC070/// 17/15 Q1013
  • 210050Z AUTO 25002KT 9999 // OVC070/// 17/15 Q1013

TAF TAF EGWU
Valid from the 20 at 21:00 until the 21 at 15:00 UTC


201936Z 2021/2115 26004KT 9999 FEW035
PROB30
TEMPO 2102/2108 SCT012
No reported NOTAMs for that airfield.



MET'MAP, your aeronautical weather chart ! - Copyright ORBIFLY December 2007 - Disclaimer

ORBIFLY MET'MAP TEAM :

Programming & Development : Alexandra Zaïnal
Concept & Development : Baudouin d'Aumeries
Co-Development & Prog : Marc-Olivier Méhu
Technical & hardware support : Manuel Goepfert

Contact : metmap@orbifly.com




SOURCES & CREDITS :

   NOAA